Springs Airfield

Jump to: basic info | weather | frequencies | runways | comments

Related pages: nearby airports | nearby navaids | notams | map

Basic information (top)

Codes: FASI
Location: lon -26.249400, lat 28.398272, elev 5,340 ft / 1,628 m msl
Status: small_airport

Weather (top)

Current conditions (rec'd 2014/10/22 02:00Z):

FASI 220200Z AUTO /////KT //// // ////// 10/08 Q1025

Airport forecast for OR Tambo International Airport 11nm (20km) NW (rec'd 2014/10/22 00:00Z):

TAF FAOR 212200Z 2200/2306 03012KT CAVOK 
      BECMG 2206/2208 33012KT 
     FM221000 30013KT 9999 SCT045 
      TEMPO 2213/2220 5000 TSRA FEW040CB 
      TEMPO 2214/2216 18020G32KT 
      BECMG 2220/2222 03007KT SCT010 PROB30 
      TEMPO 2303/2306 5000 BR BKN006 TX28/2213ZTN12/2202Z

Frequencies (top)

Verify before use: may be inaccurate or out of date.

RDO: 122.4 MHz (RDO)

Runways (top)

03/21: 5,249 x 59 ft (1,600 x 18 m) — paved — lighted — threshold 03 displaced 820 ft (250 m) — threshold 21 displaced 580 ft (177 m)

04/22: size unknown — other (Grass) — not lighted

14/32: 1,818 x 70 ft (554 x 21 m) — grass — not lighted

Latest comments (top)

challenger aircraft: I am trying to locate a gentleman by ... [read]

Operated by the East Rand Flying Club: The East Rand Flying Club operates ... [read]

More... (top)

See also NOTAMs and nearby airports and navaids, or visit the Springs Airfield page at the main OurAirports website..